Regional Weather Roundup
Issued by NWS

Home | Current Version | Previous Version | Graphics & Text | Print | Product List | Glossary On
Versions: 1 2 3 4 5 6 7 8 9 10 11 12 13 14 15 16 17 18 19 20 21 22 23 24 25 26 27 28 29 30 31 32 33 34 35 36 37 38 39 40 41 42 43 44 45 46 47 48 49 50
000
ASUS43 KMKX 070000
RWRWI

WISCONSIN REGIONAL WEATHER ROUNDUP
NATIONAL WEATHER SERVICE MILWAUKEE/SULLIVAN WI
700 PM CDT MON JUL 06 2015

NOTE: "FAIR" INDICATES FEW OR NO CLOUDS BELOW 12,000 FEET WITH NO
SIGNIFICANT WEATHER AND/OR OBSTRUCTIONS TO VISIBILITY.

WIZ001-002-006>008-014>016-023>028-070100-
NORTHWEST WISCONSIN

CITY           SKY/WX    TMP DP  RH WIND       PRES   REMARKS
SUPERIOR ARPT  SUNNY     67  51  57 N15G21    29.95R
ASHLAND        PTSUNNY   64  60  87 N6        29.93S FOG
6HR MIN TEMP:  59; 6HR MAX TEMP:  65; 6HR PCP:  0.12;

HAYWARD        CLOUDY    64  56  75 N6        29.94S HAZE
6HR MIN TEMP:  59; 6HR MAX TEMP:  64; 6HR PCP:  0.25;

SIREN          MOSUNNY   69  55  60 NW12      29.94S
CUMBERLAND     PTSUNNY   64  55  72 N10       29.94S HAZE
RICE LAKE      PTSUNNY   65  56  72 N10G17    29.95S HAZE
CHETEK         MOSUNNY   65  58  78 N10G16    29.94R HAZE
LADYSMITH      CLOUDY    63  58  85 N10       29.94S HAZE
EAU CLAIRE     NOT AVBL
MENOMONIE      SUNNY     68  57  67 NW10G21   29.93S HAZE
NEW RICHMOND   CLOUDY    66  58  73 N7        29.95S HAZE
OSCEOLA        PTSUNNY   69  58  68 N8        29.97R HAZE
$$

WIZ003>005-009-010-017-018-070100-
NORTH CENTRAL WISCONSIN

CITY           SKY/WX    TMP DP  RH WIND       PRES   REMARKS
MANITOWISH WTR CLOUDY    58  58  99 N6        29.91R FOG
ARBOR VITAE    PTSUNNY   59  57  92 N7        29.90R FOG
WOODRUFF       PTSUNNY   59  57  92 N7        29.90R FOG
RHINELANDER    CLOUDY    59  55  87 N10       29.89R FOG
6HR MIN TEMP:  59; 6HR MAX TEMP:  73; 6HR PCP:  0.61;

EAGLE RIVER    CLOUDY    57  55  94 N12       29.88S FOG
LAND O LAKES   CLOUDY    58  55  92 N9        29.90R FOG
PHILLIPS       CLOUDY    60  57  90 N5        29.91S FOG
6HR MIN TEMP:  58; 6HR MAX TEMP:  70; 6HR PCP:  0.07;

TOMAHAWK       CLOUDY    59  56  91 NW8       29.89S FOG
MEDFORD        CLOUDY    61  56  84 N18G24    29.89S HAZE
MERRILL        CLOUDY    60  59  95 N12G20    29.87R
$$

WIZ029-030-035-036-043>047-070100-
CENTRAL WISCONSIN

CITY           SKY/WX    TMP DP  RH WIND       PRES   REMARKS
WAUSAU         CLOUDY    63  58  83 N14G24    29.84R HAZE
6HR MIN TEMP:  63; 6HR MAX TEMP:  75; 6HR PCP:  0.18;

MOSINEE        NOT AVBL
MARSHFIELD     CLOUDY    64  57  78 N15G23    29.87R
6HR MIN TEMP:  64; 6HR MAX TEMP:  76; 6HR PCP:  0.74;

STEVENS POINT  LGT RAIN  64  63  96 N12       29.83R
WAUPACA        RAIN      76  72  88 W6        29.79F
WAUTOMA        NOT AVBL
WISC RAPIDS    CLOUDY    66  63  90 N16G23    29.85R
6HR MIN TEMP:  66; 6HR MAX TEMP:  80; 6HR PCP:  0.41;

CAMP DOUGLAS   LGT RAIN  70  70 100 NW15G28   29.83R FOG
$$

WIZ011>013-019>022-031-037>040-048>050-070100-
NORTHEAST WISCONSIN

CITY           SKY/WX    TMP DP  RH WIND       PRES   REMARKS
ANTIGO         DRIZZLE   59  58  96 N17       29.83R
SHAWANO        CLOUDY    74  70  89 SW12G20   29.77F
OCONTO         CLOUDY    73  73 100 S5        29.75S
STURGEON BAY   CLOUDY    68  64  88 SE5       29.79S
6HR MIN TEMP:  66; 6HR MAX TEMP:  72;

GREEN BAY      LGT RAIN  78  70  76 W17G30    29.77S HX  80
6HR MIN TEMP:  78; 6HR MAX TEMP:  80; 6HR PCP: TRACE;

MANITOWOC      NOT AVBL
APPLETON       PTSUNNY   77  64  65 SW16G23   29.80R
CLINTONVILLE   CLOUDY    72  70  94 W10       29.78S
OSHKOSH        CLOUDY    76  69  79 VRB5      29.79S
6HR MIN TEMP:  76; 6HR MAX TEMP:  80; 6HR PCP: TRACE;

$$

WIZ032>034-041-042-053>061-070100-
SOUTHWEST WISCONSIN

CITY           SKY/WX    TMP DP  RH WIND       PRES   REMARKS
LA CROSSE      PTSUNNY   68  60  75 N13       29.87R
6HR MIN TEMP:  67; 6HR MAX TEMP:  78; 6HR PCP:  0.38;

SPARTA         CLOUDY    64  61  90 NW14G21   29.88R
VIROQUA        CLOUDY    65  65 100 N15G25    29.86R
BOSCOBEL       CLOUDY    75  72  90 NW6       29.80R
6HR MIN TEMP:  74; 6HR MAX TEMP:  81; 6HR PCP:  0.15;

PRAIRIE DU CHI PTSUNNY   75  69  82 NW13      29.81R
PLATTEVILLE    CLOUDY    78  73  84 S8        29.82F
$$

WIZ056-057-062-063-064-067-068-070100-
SOUTH CENTRAL WISCONSIN

CITY           SKY/WX    TMP DP  RH WIND       PRES   REMARKS
REEDSBURG      DRIZZLE   73  72  96 W5        29.80F
BARABOO/DELLS  CLOUDY    77  69  76 SW5       29.80F
LONE ROCK      NOT AVBL
MINERAL POINT  CLOUDY    77  72  83 S8        29.82F
MADISON        CLOUDY    78  70  76 S7        29.80F HX  80
6HR MIN TEMP:  74; 6HR MAX TEMP:  80; 6HR PCP: TRACE;

MIDDLETON      CLOUDY    78  69  74 SW6       29.82F HX  80
WATERTOWN      CLOUDY    76  73  90 SW8       29.82F
MONROE         CLOUDY    77  70  78 SW12      29.83F
JANESVILLE     CLOUDY    79  73  83 SW8       29.82F HX  82
$$

WIZ051-052-058>065-066-070>072-070100-
SOUTHEAST WISCONSIN

CITY           SKY/WX    TMP DP  RH WIND       PRES   REMARKS
MILWAUKEE      CLOUDY    77  68  73 SW10      29.82F
6HR MIN TEMP:  75; 6HR MAX TEMP:  85; 6HR PCP:  0.06;

WAUKESHA       PTSUNNY   75  68  78 S8        29.84F
MILWAUKEE/TIMM NOT AVBL
RACINE         CLOUDY    75  69  81 SW6       29.85F
6HR MIN TEMP:  73; 6HR MAX TEMP:  81; 6HR PCP:  0.08;

BURLINGTON     CLOUDY    74  69  86 CALM      29.83F
KENOSHA        CLOUDY    76  70  82 CALM      29.83F
6HR MIN TEMP:  71; 6HR MAX TEMP:  85; 6HR PCP:  0.14;

FOND DU LAC    CLOUDY    78  70  76 SW8       29.80S HX  80
6HR MIN TEMP:  74; 6HR MAX TEMP:  82; 6HR PCP:  0.01;

SHEBOYGAN      CLOUDY    79  69  71 SW14      29.80S HX  81
6HR MIN TEMP:  75; 6HR MAX TEMP:  82;

WEST BEND      CLOUDY    77  68  73 SW9       29.82F
JUNEAU         CLOUDY    76  70  80 S9        29.83F
$$

LSZ147-162-070100-
LAKE SUPERIOR

STATION/POSITION TIME  TEMP    WIND        PRES    WAVE
                       AIR SEA DIR/SP/G            HT/PER
                 (UTC) (F)     (DEG/KT/KT) (MB)    (FT/S)
W MID LAKE BUOY  2250   49 39  290/  8/  8 1013.0R   0
DEVILS ISLAND    2300   60     240/  5/  6 1013.2R
PORT WING        2312   63     320/  3/  6 1013.9R
SAXON HARBOR     2300   60        CALM     1013.2R
$$

LMZ867-665-643>646-070100-
LAKE MICHIGAN

STATION/POSITION TIME  TEMP    WIND        PRES    WAVE
                       AIR SEA DIR/SP/G            HT/PER
                 (UTC) (F)     (DEG/KT/KT) (MB)    (FT/S)
CHAMBERS ISLAND  2300   69     150/  4/ 11 1007.8F
N MID LAKE BUOY  2250   61 56  220/ 19/ 23 1008.2F   4/ 5
NORTHPORT PIER   2300   64     150/  7/ 12 1008.1F
SISTER BAY       2214   65     160/ 11/ 15   N/A
ALGOMA LAKESHORE 2241          220/ 13/ 15   N/A
KEWAUNEE LAKESHO 2300   59     180/ 13/ 15 1008.0F
SHEBOYGAN LAKESH 2300   67     170/ 20/ 21 1008.9F
PORT WASHINGTON  2300   65     180/  9/ 13 1010.2S
ATWATER BUOY     2300   74 60  190/ 10/ 14 1011.2F
MILWAUKEE LAKESH 2300   78     210/ 16/ 18   N/A
KENOSHA   LAKESH 2300   71     170/  7/  8 1010.5S
$$

TC  - TEMPERATURE IN CELSIUS
VSB - VISIBILITY IN STATUTE MILES
WCI - WIND CHILL INDEX
HX  - HEAT INDEX




USA.gov is the U.S. government's official web portal to all federal, state and local government web resources and services.